Tracking 17138 objects as of 7-July-2015
HD Live streaming from Space Station

INTELSAT 901

Track INTELSAT 901 now!
INTELSAT 901 is classified as:


NORAD ID: 26824
Int'l Code: 2001-024A
Perigee: 35,781.9 km
Apogee: 35,805.6 km
Inclination: 0.0 °
Period: 1,436.1 minutes
Semi major axis: 42164 km
RCS: 15.9919 m2 (large)
Launch date: June 9, 2001
Source: International Telecommunications Satellite Organization (ITSO)

72 C-band, 22 Ku-band, broadcasting, business services, direct-to-home TV broadcasting, telecommunications, VSAT networks; Atlantic Ocean region.
Your satellite tracking list
Your tracking list is empty





NASA's NSSDC Master Catalog

Two Line Element Set (TLE):
1 26824U 01024A   15187.36792387 -.00000153  00000-0  00000+0 0  9995
2 26824 000.0208 332.1086 0002799 131.2687 295.1022 01.00271768 51539

Source of the keplerian elements: AFSPC

N2YO: 329